FW3746 Weather Reports


time (UTC)temp
C
wind
direction
speed
KPH
gust
KPH
rain 1hr
cm
rain 24hr
cm
rain mn
cm
humidity
%
barometer
mb
20260506043005 17 270 8.0 17.7 0.00 0.81 0.00 50 1011.4
20260506041533 17 245 6.4 19.3 0.00 0.81 0.00 46 1011.1
20260506040029 17 249 6.4 19.3 0.00 0.81 0.00 41 1010.9
20260506034626 17 263 9.7 17.7 0.00 0.84 0.00 39 1010.8
20260506033054 17 263 6.4 12.9 0.00 0.84 0.00 39 1010.7
20260506031551 18 267 8.0 17.7 0.00 0.84 0.00 37 1010.4
20260506030047 18 264 14.5 19.3 0.00 0.84 0.00 37 1010.2
20260506024603 18 261 11.3 17.7 0.00 0.91 0.00 38 1010.0
20260506023042 18 272 17.7 30.6 0.00 0.91 0.00 37 1009.8
20260506021539 19 289 14.5 24.1 0.00 0.91 0.00 38 1009.5
20260506020034 19 274 16.1 30.6 0.00 0.91 0.00 37 1009.2
20260506014532 20 263 19.3 40.2 0.00 0.99 0.00 35 1009.2
20260506013038 20 263 19.3 41.8 0.00 0.99 0.00 31 1009.0
20260506011525 21 275 22.5 38.6 0.00 0.99 0.00 30 1008.9
20260506010024 21 265 22.5 43.5 0.00 0.99 0.00 31 1008.7
20260506004517 21 280 19.3 33.8 0.00 1.02 0.00 32 1008.6
20260506003017 21 210 22.5 33.8 0.00 1.02 0.00 32 1008.4
20260506001517 21 220 22.5 38.6 0.00 1.02 0.00 32 1008.5
20260506000009 21 236 19.3 35.4 0.00 1.02 0.00 31 1008.4
20260505234508 21 247 16.1 33.8 0.00 1.02 0.00 30 1008.2
20260505233006 22 255 17.7 37.0 0.00 1.02 0.00 29 1008.2
20260505231505 22 194 19.3 40.2 0.00 1.02 0.00 28 1008.3
20260505230049 21 230 22.5 35.4 0.00 1.02 0.00 28 1008.3
20260505224530 22 250 24.1 45.1 0.00 1.02 1.02 27 1008.1
20260505223029 22 250 19.3 40.2 0.00 1.02 1.02 31 1008.3
20260505221533 22 250 29.0 43.5 0.00 1.02 1.02 32 1008.3
20260505220026 21 295 29.0 45.1 0.00 1.02 1.02 34 1008.3
20260505214526 21 268 25.7 38.6 0.00 1.02 1.02 37 1008.4
20260505213026 21 250 16.1 43.5 0.00 1.02 1.02 40 1008.6
20260505211523 21 212 19.3 35.4 0.00 1.02 1.02 40 1008.6
20260505210022 22 236 22.5 37.0 0.00 1.02 1.02 37 1008.6
20260505204523 21 173 20.9 40.2 0.00 1.02 1.02 42 1008.9
20260505203057 21 191 17.7 33.8 0.00 1.02 1.02 44 1008.8
20260505201552 21 234 20.9 33.8 0.00 1.02 1.02 44 1009.0
20260505200048 20 246 16.1 30.6 0.00 1.02 1.02 51 1009.1
20260505194600 20 201 12.9 24.1 0.00 1.02 1.02 53 1009.2
20260505193046 19 277 8.0 17.7 0.00 1.02 1.02 58 1009.3
20260505191546 19 325 9.7 20.9 0.00 1.02 1.02 57 1009.4
20260505190044 19 267 3.2 22.5 0.00 1.02 1.02 58 1009.8
20260505184543 20 295 14.5 20.9 0.00 1.02 1.02 58 1010.0
20260505183053 18 300 1.6 17.7 0.00 1.02 1.02 61 1010.1
20260505181542 19 222 6.4 12.9 0.00 1.02 1.02 60 1010.3
20260505180039 18 212 4.8 20.9 0.00 1.02 1.02 62 1010.4
20260505174546 18 181 3.2 14.5 0.00 1.02 1.02 64 1010.5
20260505173046 17 285 4.8 17.7 0.00 1.02 1.02 67 1010.5
20260505171538 17 85 0.0 3.2 0.00 1.02 1.02 67 1010.5
20260505170038 17 42 3.2 8.0 0.00 1.02 1.02 69 1010.4
20260505164549 16 284 1.6 11.3 0.00 1.02 1.02 71 1010.5
20260505163036 16 257 3.2 11.3 0.00 1.02 1.02 71 1010.5
20260505161537 16 254 4.8 11.3 0.00 1.02 1.02 72 1010.5
20260505153047 15 93 0.0 0.0 0.00 1.02 1.02 78 1010.1
20260505151539 15 93 0.0 0.0 0.00 1.02 1.02 80 1010.1
20260505140108 13 92 1.6 6.4 0.00 1.02 1.02 86 1009.6
20260505124553 13 118 0.0 0.0 0.03 1.02 1.02 86 1008.9
20260505123103 13 113 3.2 11.3 0.05 1.02 1.02 86 1008.6
20260505121550 12 14 0.0 3.2 0.05 0.99 0.99 86 1008.7
20260505120050 13 13 1.6 8.0 0.08 0.99 0.99 86 1008.5
20260505114549 12 24 3.2 4.8 0.10 0.99 0.99 86 1008.2
20260505113050 13 63 1.6 6.4 0.08 0.97 0.97 87 1008.6
20260505111553 12 5 3.2 4.8 0.10 0.94 0.94 86 1008.7
20260505101540 13 82 3.2 9.7 0.08 0.84 0.84 86 1009.5
20260505100049 13 86 3.2 9.7 0.13 0.84 0.84 84 1009.3
20260505094538 13 128 14.5 24.1 0.15 0.84 0.84 83 1009.5
20260505093036 13 158 14.5 27.4 0.15 0.81 0.81 84 1009.9
20260505091541 13 151 11.3 22.5 0.13 0.76 0.76 84 1010.3
20260505090047 13 134 12.9 24.1 0.15 0.71 0.71 85 1010.7
20260505084535 13 142 8.0 14.5 0.20 0.69 0.69 85 1011.0
20260505083035 13 169 11.3 19.3 0.23 0.66 0.66 85 1011.7
20260505081601 13 149 4.8 12.9 0.23 0.64 0.64 85 1011.9
20260505080053 13 94 0.0 1.6 0.20 0.56 0.56 84 1012.2
20260505074522 13 94 0.0 0.0 0.18 0.48 0.48 83 1012.3
20260505073021 13 94 0.0 4.8 0.15 0.43 0.43 83 1012.4
20260505071550 13 94 1.6 6.4 0.15 0.41 0.41 83 1012.2
20260505070048 14 94 0.0 1.6 0.13 0.36 0.36 82 1012.2
20260505064545 14 94 0.0 1.6 0.10 0.30 0.30 80 1012.0
20260505063044 14 94 0.0 0.0 0.08 0.28 0.28 78 1011.9
20260505061609 14 94 0.0 0.0 0.05 0.25 0.25 76 1011.9
20260505060045 14 94 0.0 0.0 0.03 0.23 0.23 76 1011.9
20260505054520 14 94 0.0 0.0 0.00 0.20 0.20 76 1011.4
20260505053011 15 94 0.0 0.0 0.00 0.20 0.20 73 1011.8
20260505051506 14 94 0.0 9.7 0.00 0.20 0.20 74 1012.1